Kansas Department of Transportation
RWIS(Road and Runway Information System) Map and Weather Data





Station
Surface
Air
Wind
Site IDSensor TypeLocationTemperature (°F)Temperature (°F)Humidity (%)Speed (mi/h)Gusts (mi/h)DirectionTime
123002AtmosphericBonner Springs 9736714SJun 18 2021 3:35PM
123002ApproachBonner SpringsUnavailable     Jun 18 2021 3:35PM
123002DeckBonner SpringsUnavailable     Jun 18 2021 3:35PM
123014AtmosphericBull Creek 97402283WJun 18 2021 3:35PM
123014DeckBull Creek131     Jun 18 2021 3:35PM
123014DepartureBull Creek129     Jun 18 2021 3:35PM
123015AtmosphericLeavenworth 9543612SWJun 18 2021 3:35PM
123015DeckLeavenworthUnavailable     Jun 18 2021 3:35PM
123015DepartureLeavenworth129     Jun 18 2021 3:35PM
123020AtmosphericMayetta 102287 SSWJun 18 2021 3:35PM
505000AtmosphericKTA 1 99900NJun 18 2021 3:30PM
505000ApproachKTA 1127     Jun 18 2021 3:40PM
505000DeckKTA 1129     Jun 18 2021 3:40PM
505001AtmosphericKTA 2 9936915SSWJun 18 2021 3:30PM
505001ApproachKTA 2129     Jun 18 2021 3:30PM
505001DeckKTA 2133     Jun 18 2021 3:30PM
505002AtmosphericKTA 3 974449SSEJun 18 2021 3:30PM
505002ApproachKTA 3133     Jun 18 2021 3:30PM
505002DeckKTA 3126     Jun 18 2021 3:30PM
505003AtmosphericKTA 4 953306NJun 18 2021 3:30PM
505003ApproachKTA 4Unavailable     Jun 18 2021 3:30PM
505003DeckKTA 4Unavailable     Jun 18 2021 3:30PM
505004AtmosphericKTA 5 95991217SEJun 18 2021 3:30PM
505004RoadwayKTA 5129     Jun 18 2021 3:30PM
505004RoadwayKTA 5129     Jun 18 2021 3:30PM
505005AtmosphericKTA 6 97321117SJun 18 2021 3:30PM
505005Approach KTA 6135     Jun 18 2021 3:30PM
505005DeckKTA 6131     Jun 18 2021 3:30PM
505006AtmosphericKTA 7 10040611SWJun 18 2021 3:30PM
505006ApproachKTA 7138     Jun 18 2021 3:30PM
505006DeckKTA 7127     Jun 18 2021 3:30PM
505007AtmosphericKTA 8 974559SWJun 18 2021 3:30PM
505007ApproachKTA 8135     Jun 18 2021 3:30PM
505007DeckKTA 8124     Jun 18 2021 3:30PM
505008AtmosphericKTA 9 1003259WJun 18 2021 3:30PM
505008ApproachKTA 9140     Jun 18 2021 3:30PM
505008DeckKTA 9129     Jun 18 2021 3:30PM
505009AtmosphericKTA 10 10041410SWJun 18 2021 3:30PM
505009ApproachKTA 10127     Jun 18 2021 3:30PM
505009DeckKTA 10126     Jun 18 2021 3:30PM
505010AtmosphericWebb 10030914ESEJun 18 2021 3:35PM
505010DeckWebb126     Jun 18 2021 3:35PM
505010NullWebb37     Jun 18 2021 3:35PM
505014AtmosphericI-135 99271019SSWJun 18 2021 3:35PM
505014ApproachI-135124     Jun 18 2021 3:35PM
505014DeckI-135127     Jun 18 2021 3:35PM
540000AtmosphericBlue Rapids 9937610SJun 18 2021 3:35PM
540000DeckBlue Rapids133     Jun 18 2021 3:35PM
540000DepartureBlue RapidsUnavailable     Jun 18 2021 3:35PM
540001AtmosphericSabetha 954759SSWJun 18 2021 3:35PM
540001ApproachSabethaUnavailable     Jun 18 2021 3:35PM
540001DeckSabethaUnavailable     Jun 18 2021 3:35PM
540002AtmosphericWestgate 10030611SSWJun 18 2021 3:35PM
540002DeckWestgate131     Jun 18 2021 3:35PM
540002DepartureWestgateUnavailable     Jun 18 2021 3:35PM
540003AtmosphericEmporia 99371317SWJun 18 2021 3:35PM
540003ApproachEmporia131     Jun 18 2021 3:35PM
540003DeckEmporia133     Jun 18 2021 3:35PM
540005AtmosphericLawrence 9738514SSEJun 18 2021 3:35PM
540005ApproachLawrence73     Jun 18 2021 3:35PM
540005DeckLawrence133     Jun 18 2021 3:35PM
540006AtmosphericTroy 956146SJun 18 2021 3:35PM
540006DeckTroy127     Jun 18 2021 3:35PM
540006DepartureTroy133     Jun 18 2021 3:35PM
540007AtmosphericManhattan 1003425SJun 18 2021 3:35PM
540007DepartureManhattan136     Jun 18 2021 3:35PM
540007DeckManhattan140     Jun 18 2021 3:35PM
541000AtmosphericElkhart 10281014SSEJun 18 2021 3:35PM
541000ApproachElkhart149     Jun 18 2021 3:35PM
541000DeckElkhart142     Jun 18 2021 3:35PM
541001AtmosphericSyracuse 991849NNWJun 18 2021 3:35PM
541001Out of Service for WinterSyracuse131     Jun 18 2021 3:35PM
541001DeckSyracuseUnavailable     Jun 18 2021 3:35PM
541003AtmosphericFord 10220815SSWJun 18 2021 3:35PM
541003DeckFordUnavailable     Jun 18 2021 3:35PM
541003DepartureFord133     Jun 18 2021 3:35PM
541004AtmosphericScott 1042469NNEJun 18 2021 3:35PM
541004DepartureScott133     Jun 18 2021 3:35PM
541005AtmosphericNess 104171115SJun 18 2021 3:35PM
541005DeckNess133     Jun 18 2021 3:35PM
541005DepartureNess135     Jun 18 2021 3:35PM
541007DeckGarden CityUnavailable     Jun 18 2021 1:45PM
543000AtmosphericJunction City      Jun 18 2021 11:05AM
543000ApproachJunction City      Jun 18 2021 11:05AM
543000DeckJunction City      Jun 18 2021 11:05AM
543001AtmosphericEllsworth 10224913SWJun 18 2021 3:35PM
543001RoadwayEllsworth135     Jun 18 2021 3:35PM
543002AtmosphericMcPherson 100281621SSWJun 18 2021 3:35PM
543002ApproachMcPherson127     Jun 18 2021 3:35PM
543002DeckMcPherson46     Jun 18 2021 3:35PM
543003AtmosphericSalina 10217917SSWJun 18 2021 3:35PM
543003DepartureSalina131     Jun 18 2021 3:35PM
543003RoadwaySalina136     Jun 18 2021 3:35PM
543004AtmosphericConcordia 9930712SJun 18 2021 3:35PM
543004ApproachConcordiaUnavailable     Jun 18 2021 3:35PM
543004DeckConcordiaUnavailable     Jun 18 2021 3:35PM
543005AtmosphericPeabody 9928915SJun 18 2021 3:35PM
543005ApproachPeabody138     Jun 18 2021 3:35PM
543005DeckPeabody135     Jun 18 2021 3:35PM
560000AtmosphericEdson 9135812NJun 18 2021 3:35PM
560000RoadwayEdson127     Jun 18 2021 3:35PM
560000RoadwayEdson126     Jun 18 2021 3:35PM
560001AtmosphericOakley 972647NWJun 18 2021 3:35PM
560001ApproachOakley133     Jun 18 2021 3:35PM
560001DeckOakley131     Jun 18 2021 3:35PM
560002AtmosphericAtwood 914448NEJun 18 2021 3:35PM
560002ApproachAtwoodUnavailable     Jun 18 2021 3:35PM
560002DeckAtwoodUnavailable     Jun 18 2021 3:35PM
560003AtmosphericJennings 953047NEJun 18 2021 3:35PM
560003ApproachJennings133     Jun 18 2021 3:35PM
560003DeckJennings129     Jun 18 2021 3:35PM
560003DeckJennings129     Jun 18 2021 3:35PM
560004AtmosphericWakeeney 10027610NNEJun 18 2021 3:35PM
560004ApproachWakeeney133     Jun 18 2021 3:35PM
560004DeckWakeeney131     Jun 18 2021 3:35PM
560005AtmosphericWalker 10413815SSWJun 18 2021 3:35PM
560005ApproachWalker138     Jun 18 2021 3:35PM
560005DeckWalker131     Jun 18 2021 3:35PM
560006AtmosphericBow Creek(Stockton) 972600SEJun 18 2021 3:35PM
560006ApproachBow Creek(Stockton)136     Jun 18 2021 3:35PM
560006DeckBow Creek(Stockton)Unavailable     Jun 18 2021 3:35PM
560007AtmosphericLebanon 8227510SEJun 18 2021 3:35PM
560007ApproachLebanonUnavailable     Jun 18 2021 3:35PM
560007DeckLebanon135     Jun 18 2021 3:35PM
560008AtmosphericWallace 934028NNWJun 18 2021 3:35PM
560008ApproachWallace127     Jun 18 2021 3:35PM
560008DeckWallace122     Jun 18 2021 3:35PM
572000AtmosphericGreat Bend 104151115WSWJun 18 2021 3:35PM
572000ApproachGreat BendUnavailable     Jun 18 2021 3:35PM
572000DeckGreat Bend135     Jun 18 2021 3:35PM
572001AtmosphericPratt 1041017NEJun 18 2021 3:35PM
572001ApproachPratt144     Jun 18 2021 3:35PM
572001DeckPratt140     Jun 18 2021 3:35PM
572002AtmosphericAnthony 9933610SSWJun 18 2021 3:35PM
572002ApproachAnthony145     Jun 18 2021 3:35PM
572002DeckAnthony138     Jun 18 2021 3:35PM
573000AtmosphericEureka 9541516SJun 18 2021 3:35PM
573000DeckEurekaUnavailable     Jun 18 2021 3:35PM
573000DepartureEureka129     Jun 18 2021 3:35PM
573001AtmosphericGarnett 934269SJun 18 2021 3:35PM
573001ApproachGarnettUnavailable     Jun 18 2021 3:35PM
573001DeckGarnettUnavailable     Jun 18 2021 3:35PM
573003AtmosphericChetopa 935327SWJun 18 2021 3:35PM
573003DeckChetopa140     Jun 18 2021 3:35PM
573003DeckChetopa140     Jun 18 2021 3:35PM
573003DepartureChetopaUnavailable     Jun 18 2021 3:35PM
573004AtmosphericChanute 9538716SJun 18 2021 3:35PM
573004ApproachChanute133     Jun 18 2021 3:35PM
573004DeckChanute131     Jun 18 2021 3:35PM